Flag for Germany Weather past 2 weeks in Bruchsal, Baden-Württemberg, Germany

Now
73 °F

Passing clouds.


Feels Like: 76 °F
Forecast: 52 / 68 °F
Wind: 7 mph from South

Location: Baden Wurttemberg - Neuostheim

Current Time: Sep 1, 2015 at 10:19:53 AM

Latest Report: Sep 1, 2015 at 9:50 AM


Visibility: N/A

Pressure: 29.77 "Hg

Humidity: 65%

Dew point: 61 °F

Location of BruchsalLocation

Historic Weather in Bruchsal — Graph

°F

Bruchsal temperature yesterday

Maximum temperature yesterday: 93 °F (at 4:20 PM)
Minimum temperature yesterday: 70 °F (at 6:20 AM)
Average temperature yesterday: 84 °F

Past Weeks' High & Low Weather Summary

 TemperatureHumidityPressure
High93 °F (Aug 30, 4:50 PM)100% (Aug 17, 9:20 PM)30.27 "Hg (Aug 17, 9:20 PM)
Low54 °F (Aug 19, 5:20 AM)21% (Aug 31, 4:20 PM)29.68 "Hg (Aug 23, 4:50 PM)
Average71 °F60%30.01 "Hg
* Reported Aug 17 9:20 AM — Sep 1 9:20 AM, Bruchsal, Weather by CustomWeather, © 2015

Note: Actual official high and low records may vary slightly from our data, if they occured in-between our weather recording intervals... More about our weather records

Advertising

Bruchsal weather history for previous 24 hours

 ConditionsComfort  
Time TempWeatherWind HumidityBarometerVisibility
9:20 AM
Tue, Sep 1
73 °FPassing clouds.5 mph65%29.77 "HgN/A
8:50 AM73 °FSunny.6 mph61%29.77 "Hg10 mi
8:20 AM73 °FSunny.3 mph65%29.77 "Hg10 mi
7:50 AM72 °FSunny.2 mph65%29.80 "Hg10 mi
7:20 AM70 °FClear.1 mph73%29.80 "Hg10 mi
6:50 AM70 °FClear.1 mph69%29.80 "Hg10 mi
11:20 PM
Mon, Aug 31
81 °FClear.6 mph45%29.83 "Hg10 mi
10:50 PM81 °FClear.6 mph42%29.83 "Hg10 mi
10:20 PM82 °FPassing clouds.5 mph40%29.83 "HgN/A
9:20 PM81 °FClear.2 mph42%29.83 "Hg10 mi
8:50 PM84 °FSunny.5 mph35%29.83 "Hg10 mi
7:50 PM90 °FPassing clouds.6 mph27%29.80 "HgN/A
7:20 PM91 °FPassing clouds.8 mph26%29.80 "HgN/A
6:50 PM91 °FPassing clouds.10 mph24%29.83 "HgN/A
6:20 PM91 °FPassing clouds.12 mph24%29.83 "HgN/A
5:50 PM93 °FPassing clouds.12 mph23%29.83 "HgN/A
5:20 PM93 °FPassing clouds.10 mph21%29.83 "HgN/A
4:50 PM93 °FPassing clouds.14 mph21%29.83 "HgN/A
4:20 PM93 °FPassing clouds.9 mph21%29.86 "HgN/A
3:50 PM91 °FPassing clouds.10 mph24%29.86 "HgN/A
3:20 PM91 °FPassing clouds.12 mph24%29.86 "HgN/A
2:50 PM91 °FPassing clouds.9 mph24%29.89 "HgN/A
2:20 PM91 °FPassing clouds.8 mph26%29.89 "HgN/A
1:50 PM90 °FPassing clouds.8 mph26%29.89 "HgN/A
1:20 PM90 °FPassing clouds.8 mph26%29.92 "HgN/A
12:50 PM88 °FPleasantly warm.10 mph27%29.92 "HgN/A
12:20 PM88 °FPleasantly warm.9 mph29%29.92 "HgN/A
11:50 AM86 °FPassing clouds.7 mph40%29.95 "HgN/A
11:20 AM84 °FPassing clouds.8 mph40%29.95 "HgN/A
10:50 AM82 °FPassing clouds.7 mph42%29.95 "HgN/A
10:20 AM79 °FPassing clouds.7 mph48%29.95 "HgN/A
Weather by CustomWeather, © 2015

See weather overviewHow to use our weather pages